Location: Newark
(45.9456°N, 15.4064°E)
Time: 05:43:09
(UTC+00:00)

ISS - Visible Passes

Search period start: 15 December 2019 00:00
Search period end: 25 December 2019 00:00
Orbit: 411 x 421 km, 51.6° (Epoch: 15 December)

Date Brightness Start Highest point End Pass type
(mag) Time Alt. Az. Time Alt. Az. Time Alt. Az.
21 Dec -0.7 05:20:38 10° S 05:22:53 17° SE 05:25:07 10° E visible
22 Dec -0.3 04:34:02 10° SE 04:34:33 10° SE 04:35:04 10° ESE visible
23 Dec -2.4 05:19:05 10° SW 05:22:13 40° SE 05:25:21 10° ENE visible
24 Dec -1.6 04:31:38 14° S 04:33:45 25° SE 04:36:33 10° E visible
